Location: Halvern
(37.6252°N, 122.0525°W)
Time: 05:55:16
(UTC+00:00)

Thor Agena Rocket - Pass Details

Date: 29 May 2024
Orbit: 758 x 804 km, 99.1° (Epoch: 23 June)

Event Time Altitude Azimuth Distance (km) Brightness Sun altitude
Rises 12:07:47 0° 10° (N) 3,303 7.5 -7.8°
Reaches altitude 10° 12:10:07 10° 8° (N) 2,375 6.7 -7.4°
Maximum altitude 12:15:20 69° 287° (WNW) 857 3.7 -6.6°
Drops below altitude 10° 12:20:33 10° 204° (SSW) 2,374 5.5 -5.7°
Sets 12:22:53 0° 202° (SSW) 3,301 6.3 -5.3°
Enters shadow 12:22:55 - 202° (SSW) 3,317 6.3 -5.3°
